Terug naar catalogus

HAWK-2C

ActiefWetenschapSSO
NORAD 47502·PAYLOAD·🇺🇸 United States

Gelanceerd Jan 24, 2021 vanaf Cape Canaveral Space Force Station

Loading…

Volgende Passages (komende 24 uur)

TLE

VersSource: Space-Track

Epoch: Sep 14, 2026, 13:58 UTC

1 47502U 21006CT  26257.58217437  .00005046  00000-0  14792-3 0  9997
2 47502  97.2195 300.1299 0005267 229.4560 130.6226 15.35625431313210

Volg HAWK-2C in realtime met AllMySat

Download on the App Store